パンスターズ彗星

C/2023 H1 ( PanSTARRS )

English version
Home page
Updated on March 23, 2025

---------------------------------------------------------------------

・ プロフィール

発見日 2023年4月17日
発見光度 20.8等
発見者 Pan-STARRS 2 telescope (Haleakala)

・ 軌道要素

Epoch 2024 Oct. 17.0 TT = JDT 2460600.5
T 2024 Nov. 28.74760 TT                                 Rudenko
q   4.4477815            (2000.0)            P               Q
z  +0.0012962      Peri.  333.76601     -0.03341281     +0.93894425
 +/-0.0000049      Node   292.64858     -0.83929302     -0.21239538
e   0.9942346      Incl.   21.78085     -0.54265164     +0.27068782
>From 113 observations 2023 Apr. 17-2024 Aug. 22, mean residual 0".4.

・ 光度変化

        m1 = 5.5 + 5 logΔ + 14.0 log r

---------------------------------------------------------------------

軌道要素はM.P.E.C. 2024-R10に掲載されたものです。
光度グラフはComet for Windowsで作成したものです。

---------------------------------------------------------------------

Copyright(C) Seiichi Yoshida (comet@aerith.net). All rights reserved.